Location: Dead Woman Crossing
(43.5369°N, 106.3228°W)
Time: 07:56:30
(UTC+00:00)

NANOSAT C BR1 - Pass Details

Date: 04 July 2022
Orbit: 584 x 599 km, 98.0° (Epoch: 17 August)

Event Time Altitude Azimuth Distance (km) Brightness Sun altitude
Rises 08:04:55 0° 32° (NNE) 2,852 ? -22.4°
Reaches altitude 10° 08:07:58 10° 56° (NE) 1,946 ? -22.3°
Maximum altitude 08:10:24 15° 91° (E) 1,641 ? -22.2°
Enters shadow 08:11:55 13° 115° (ESE) 1,762 ? -22.1°
